Temp
8 9 8 7 6 5 0 1 1 1 -0 2 2 2 4 6 6 6 6 6 5 5 4 4 4 4 4 3 3 3 2 2 1 1 1 1 1 1 1 1 1 1 1 1
9 10 9 8 7 6 5 3 0 1 1 1 3 6 6 6 6 6 6 6 5 6 5 4 4 4 4 3 3 3 3 2 2 1 1 0 0 0 0 1 1 1 1 1
9 8 7 7 6 7 6 3 3 2 2 3 6 7 7 6 6 6 6 6 5 5 5 5 4 4 3 3 3 3 3 3 2 1 1 0 -0 -0 -0 -0 0 1 1 1
7 7 5 7 7 7 6 7 6 6 6 8 7 8 8 7 6 6 6 6 5 6 5 4 4 4 3 3 3 2 2 2 2 1 0 -0 -0 -1 -1 -1 -1 -0 0 0
4 7 8 8 8 7 6 6 7 8 7 8 8 7 6 7 7 6 6 7 6 6 5 4 3 3 3 2 2 1 1 1 1 0 0 -1 -1 -1 -1 -1 -1 -1 -1 -0
5 5 6 7 10 10 8 4 8 7 7 8 7 4 3 6 6 7 8 7 6 5 4 3 3 2 2 1 1 0 0 0 1 -0 -1 -1 -1 -1 -1 -1 -1 -1 -1 -1
-3 0 5 10 11 9 5 4 8 8 7 7 6 4 5 6 7 7 7 6 6 4 3 3 2 2 2 1 1 0 0 -0 -0 -1 -2 -1 -1 -1 -1 -1 -1 -1 -1 -1
2 -0 3 10 11 9 6 7 10 8 7 7 7 8 7 7 6 7 6 6 5 4 3 3 2 2 1 1 1 1 0 -1 -2 -2 -2 -1 -1 -0 -1 -1 -1 -1 -1 -1
5 3 6 8 8 9 8 8 10 8 7 7 7 7 7 6 6 7 6 5 4 3 2 2 2 1 1 0 -0 -0 -1 -2 -2 -2 -2 -2 -1 -1 -1 -1 -1 -1 -1 -1
6 9 8 8 9 9 10 10 10 9 9 8 9 8 7 6 5 4 3 3 2 2 1 1 0 0 -0 -1 -1 -1 -2 -2 -2 -2 -2 -2 -1 -2 -2 -2 -2 -2 -2 -2
7 8 10 10 10 9 10 11 8 9 9 9 8 6 4 3 3 2 2 2 1 0 -0 -1 -1 -1 -1 -2 -2 -2 -2 -2 -2 -2 -2 -2 -2 -2 -2 -1 -1 -2 -1 -1
6 8 8 8 9 10 10 8 8 8 7 6 6 4 3 2 2 2 1 1 -0 -1 -1 -1 -1 -2 -2 -3 -3 -2 -2 -2 -2 -2 -2 -2 -3 -3 -2 -2 -1 -1 -0 -1
9 10 8 9 9 10 9 7 9 6 6 4 4 3 2 1 1 0 -0 -0 -1 -1 -1 -1 -2 -2 -3 -3 -4 -4 -3 -3 -3 -2 -2 -3 -3 -3 -2 -2 -2 -1 -2 -2
9 10 10 9 9 9 10 8 7 6 5 4 3 2 1 0 -0 -1 -1 -1 -2 -2 -2 -2 -2 -2 -3 -3 -3 -3 -2 -2 -3 -3 -3 -3 -3 -3 -3 -3 -2 -2 -2 -2
10 11 9 9 9 9 8 7 5 4 4 2 2 1 0 -1 -1 -2 -1 -2 -2 -2 -1 -2 -2 -3 -3 -3 -3 -3 -3 -2 -3 -3 -3 -4 -4 -4 -4 -3 -3 -3 -2 -3
9 10 9 9 7 6 5 5 4 3 3 2 1 0 -1 -1 -2 -2 -2 -2 -3 -3 -2 -3 -3 -3 -3 -3 -3 -3 -3 -4 -4 -4 -4 -4 -4 -4 -4 -3 -3 -3 -3 -4
10 10 8 7 6 5 5 5 5 4 3 2 1 0 -1 -1 -2 -2 -2 -2 -2 -3 -3 -3 -3 -4 -3 -3 -3 -3 -4 -4 -4 -4 -4 -4 -4 -4 -4 -4 -4 -3 -4 -4
9 9 8 6 5 4 4 5 5 4 3 2 1 0 -1 -2 -3 -2 -2 -2 -2 -2 -3 -3 -3 -3 -3 -3 -4 -4 -4 -4 -4 -5 -5 -5 -5 -5 -5 -4 -4 -4 -4 -4
9 8 8 7 7 6 6 5 5 4 3 2 1 0 -1 -2 -2 -2 -2 -2 -3 -3 -4 -4 -4 -4 -4 -4 -4 -4 -4 -4 -5 -5 -5 -6 -5 -5 -5 -5 -5 -5 -5 -5
8 8 8 7 7 7 6 6 5 4 3 2 1 -0 -1 -1 -2 -2 -2 -3 -3 -4 -4 -4 -4 -4 -4 -4 -4 -4 -4 -5 -5 -6 -6 -6 -6 -6 -5 -6 -6 -6 -5 -5
7 7 7 7 7 7 7 7 5 4 3 2 1 0 -1 -1 -2 -2 -2 -3 -3 -4 -4 -4 -4 -4 -4 -4 -4 -4 -4 -5 -5 -6 -6 -6 -6 -6 -6 -6 -6 -6 -6 -6
7 7 7 7 6 7 7 6 4 4 3 1 1 -0 -1 -2 -2 -2 -2 -2 -3 -4 -4 -4 -4 -4 -5 -5 -5 -5 -5 -5 -5 -5 -7 -7 -7 -6 -6 -7 -6 -6 -7 -6
7 7 7 6 6 6 6 4 4 3 3 2 1 0 -1 -1 -1 -2 -2 -3 -4 -4 -4 -5 -5 -5 -5 -5 -5 -6 -6 -6 -6 -6 -7 -7 -7 -7 -7 -8 -7 -7 -7 -7
7 7 7 7 6 5 3 5 4 3 3 2 1 1 -0 -1 -1 -2 -2 -3 -4 -4 -5 -5 -5 -5 -6 -6 -6 -7 -7 -7 -7 -7 -7 -7 -8 -8 -8 -9 -8 -8 -8 -8
7 7 6 6 4 4 5 5 3 3 2 2 1 1 0 -0 -1 -2 -3 -3 -4 -5 -5 -6 -6 -6 -7 -7 -7 -8 -8 -8 -8 -8 -8 -8 -8 -9 -9 -9 -9 -9 -10 -9
7 6 6 6 6 6 6 5 3 3 2 1 1 1 0 -0 -2 -3 -3 -4 -5 -5 -6 -6 -6 -6 -7 -7 -7 -7 -8 -9 -9 -9 -9 -10 -10 -10 -10 -10 -10 -11 -11 -10
6 6 5 5 5 5 5 5 3 3 2 2 1 0 -1 -2 -3 -3 -4 -5 -5 -6 -6 -6 -6 -7 -7 -7 -8 -8 -9 -9 -10 -10 -10 -10 -10 -11 -11 -12 -12 -12 -11 -11
Height
873 867 873 881 881 885 906 905 909 901 908 883 873 870 861 854 850 846 842 838 833 828 825 823 817 811 807 802 794 788 780 772 764 760 757 752 742 717 717 727 731 709 720 712
868 862 869 876 877 880 883 890 903 897 897 877 865 856 854 852 848 845 841 838 833 828 825 823 819 813 808 803 799 793 785 776 771 763 751 734 719 729 741 741 725 717 725 729
870 874 878 881 880 875 879 887 887 896 886 870 861 855 852 851 848 845 840 837 833 828 824 822 819 814 807 801 798 796 793 786 777 769 759 750 751 750 749 734 733 724 722 724
880 879 899 872 866 869 873 868 871 869 866 859 855 853 850 847 845 842 838 834 831 827 824 823 819 815 810 801 795 793 788 783 774 767 763 759 756 755 752 747 741 733 730 734
898 881 867 863 862 869 870 871 861 859 860 856 852 852 852 846 843 840 836 832 831 827 825 823 819 815 811 804 796 790 783 779 777 772 767 767 764 757 753 749 741 739 741 737
890 890 886 867 851 851 859 883 855 857 856 854 854 865 859 845 842 838 835 833 830 826 823 821 819 815 810 807 798 792 789 782 777 772 769 763 758 756 752 749 746 745 745 740
934 920 879 851 847 851 878 879 849 850 853 853 855 855 848 843 840 837 835 832 829 825 823 821 819 815 812 810 804 798 794 790 784 777 770 767 764 761 757 753 750 752 747 742
900 920 898 848 848 855 859 849 844 847 848 849 847 844 842 840 838 835 833 830 828 825 822 820 817 813 811 810 807 802 797 793 788 783 777 771 766 762 761 759 757 755 749 750
873 880 854 846 845 842 844 845 842 845 845 845 844 843 841 839 837 835 833 831 829 827 824 821 819 814 811 810 808 804 800 796 792 788 782 775 768 764 761 758 757 754 753 750
859 843 844 840 839 838 839 839 840 841 842 843 842 841 839 838 838 838 836 834 831 828 825 822 818 814 812 809 807 805 802 799 797 792 787 783 776 769 766 761 758 754 751 748
848 842 836 833 835 836 837 836 838 840 841 841 841 842 842 843 842 841 838 835 832 829 825 822 818 815 813 810 806 802 800 798 797 794 790 783 779 774 768 763 760 757 752 745
850 834 834 835 832 831 834 837 838 839 841 842 841 842 843 844 843 842 839 836 833 830 827 824 821 818 814 811 807 804 800 796 792 790 788 784 778 772 770 767 762 757 752 749
830 823 826 826 828 829 833 835 837 839 840 842 844 844 844 845 844 842 840 837 834 832 829 826 823 820 817 813 809 805 801 798 794 790 785 781 778 775 768 765 762 759 756 751
822 822 825 825 829 828 829 834 836 839 841 843 844 845 845 844 843 841 840 838 836 833 830 827 824 820 816 812 809 805 802 798 795 792 787 782 777 773 770 765 759 755 753 749
818 818 820 821 825 828 831 834 838 841 843 843 843 843 843 843 842 841 840 838 836 834 831 828 825 821 817 813 810 807 803 799 795 791 786 780 775 772 770 766 762 756 751 747
818 818 820 823 827 830 832 835 837 840 840 841 842 842 843 842 841 841 840 838 835 833 831 829 826 822 819 815 811 807 803 800 795 790 785 780 777 773 769 765 762 757 753 749
817 819 823 826 828 831 832 833 835 837 838 839 840 841 841 841 840 839 838 837 835 833 832 829 826 823 819 816 811 807 803 799 795 791 786 782 778 774 770 765 762 757 753 749
812 813 815 820 826 829 832 832 834 835 836 837 838 839 839 839 839 838 837 836 834 833 831 829 827 824 820 816 813 808 805 800 796 792 788 784 780 776 771 767 763 758 752 749
811 814 817 820 823 826 828 830 831 832 834 835 835 836 837 837 837 836 835 834 833 832 830 828 827 824 821 817 814 810 806 802 797 793 789 785 781 778 773 768 763 758 756 753
813 815 817 819 821 823 826 827 829 830 831 832 833 834 834 835 835 834 833 832 832 831 830 828 826 824 821 817 814 811 807 803 799 795 792 788 784 779 775 771 767 764 759 755
813 815 816 818 819 820 822 823 825 826 827 829 830 830 831 832 832 831 830 830 830 829 828 826 825 822 820 817 814 811 808 804 800 797 793 789 785 781 777 773 769 764 759 754
812 813 815 816 817 818 819 821 822 823 824 826 826 827 828 828 828 829 828 829 828 827 825 824 822 821 819 816 813 810 807 804 801 798 794 790 786 782 778 774 770 766 762 757
809 811 812 814 815 815 816 817 818 820 820 821 822 823 823 824 824 825 825 825 825 825 823 822 820 818 817 814 812 809 807 804 801 798 794 791 788 783 779 775 771 767 762 758
806 808 809 810 811 812 813 812 813 814 815 817 818 819 820 820 821 821 822 822 822 822 821 820 818 816 815 813 811 808 806 803 800 797 795 791 788 784 781 776 772 768 763 759
803 804 806 807 807 808 808 808 809 810 811 811 813 814 815 817 818 818 819 819 819 819 818 818 817 815 814 812 810 808 805 802 799 796 794 791 787 783 780 776 772 768 764 759
801 801 802 803 803 804 804 804 804 805 806 807 809 810 812 813 815 816 817 817 817 816 816 816 815 814 813 811 809 807 804 802 799 796 793 791 787 784 780 776 772 768 764 759
799 799 800 801 801 801 801 801 801 802 803 804 807 808 809 810 812 813 814 815 814 814 814 814 814 813 811 809 807 805 803 801 798 795 793 790 786 783 780 777 772 768 763 758
Wind_Speed
6 7 3 2 2 4 4 4 4 5 4 9 9 6 6 6 6 7 8 7 8 7 9 13 18 23 23 26 27 29 26 26 31 30 28 26 29 39 40 33 26 38 30 32
4 5 6 2 4 1 2 2 2 3 6 6 7 3 4 6 6 7 8 7 8 9 11 12 18 20 22 25 25 28 28 26 26 29 33 38 45 39 30 27 33 35 30 23
2 8 3 3 6 4 4 3 3 2 8 5 1 2 4 6 6 6 7 7 7 8 12 14 20 22 23 25 26 25 24 22 23 26 30 31 30 30 32 34 30 31 32 31
1 6 3 5 6 5 5 3 4 5 5 4 3 4 2 4 4 7 7 7 7 13 12 18 24 23 22 26 25 26 29 26 26 27 28 30 28 29 29 29 30 31 31 27
2 2 4 0 3 5 6 6 4 3 5 3 2 3 5 5 4 5 6 12 12 18 16 18 24 23 21 24 24 29 32 31 26 27 29 27 26 26 28 27 29 32 30 29
1 1 4 5 2 4 4 4 5 8 7 4 1 3 4 6 6 8 15 13 16 15 16 20 22 22 23 21 25 27 29 31 28 29 29 29 28 28 28 27 25 26 26 27
2 2 6 4 2 5 4 7 3 6 6 5 3 5 5 8 8 11 11 11 15 12 14 16 18 21 21 19 23 25 26 27 25 28 28 28 26 27 26 27 25 22 22 24
2 3 5 4 1 4 7 4 4 4 5 6 6 4 5 6 5 9 13 15 14 13 16 20 21 24 20 19 24 25 25 24 25 26 27 28 27 27 25 25 22 20 21 20
7 5 7 5 7 6 5 4 2 6 6 5 5 5 6 5 4 7 10 14 16 18 18 21 19 22 20 20 21 23 22 24 23 24 26 27 27 27 23 25 23 21 18 20
3 5 7 8 5 5 5 4 3 3 4 4 2 4 5 4 6 11 14 15 19 18 16 17 23 23 22 22 21 18 18 20 22 23 24 23 24 25 22 21 21 21 20 19
4 6 4 2 5 7 6 3 6 6 3 2 3 6 7 5 9 10 13 16 17 18 18 19 24 22 23 23 24 22 19 20 19 20 22 23 21 21 22 22 22 23 22 23
5 8 5 5 8 6 6 5 7 5 5 11 11 7 10 8 7 9 10 12 16 18 21 22 22 22 23 22 22 22 20 20 22 22 23 20 22 24 21 21 22 22 22 24
4 5 8 8 6 7 7 8 7 13 12 8 11 11 8 4 6 6 8 10 15 13 18 18 21 24 21 21 18 20 19 19 21 23 23 21 20 19 23 25 21 23 25 26
6 4 2 6 5 11 12 13 18 17 15 13 11 8 6 6 8 8 10 10 13 11 15 15 21 24 25 21 16 22 22 22 21 22 21 21 20 20 21 19 23 25 23 25
4 4 5 7 10 7 19 17 9 6 9 10 9 8 7 8 7 6 9 11 11 12 13 14 22 22 21 21 21 23 21 22 23 22 24 22 20 18 19 18 19 20 25 26
5 6 6 6 7 7 9 7 8 5 7 6 5 6 5 5 3 6 9 12 13 13 12 15 16 19 19 19 22 22 21 22 21 20 23 22 18 18 19 19 19 19 19 21
5 4 6 6 9 7 6 9 9 8 7 4 2 3 4 5 4 7 11 12 12 6 12 12 16 17 20 19 21 21 18 20 21 18 19 19 19 19 19 19 19 20 20 22
7 7 12 13 9 7 6 10 11 10 5 4 1 2 3 2 6 10 11 12 5 8 12 12 14 17 18 19 20 19 17 21 21 20 20 21 19 19 20 20 19 20 23 23
16 14 17 18 18 15 11 11 10 8 7 5 3 2 2 2 6 9 10 9 4 9 14 11 13 17 18 17 19 19 20 20 19 19 21 20 18 19 20 21 22 22 23 21
10 15 16 16 15 14 11 11 12 10 8 7 5 4 5 5 6 8 10 8 3 5 10 10 11 15 18 16 17 19 21 21 21 17 18 18 17 21 22 22 20 19 21 22
10 13 15 16 14 13 14 14 16 15 12 10 9 7 7 5 6 8 8 6 4 5 10 9 11 13 17 16 16 17 18 19 22 18 18 20 19 21 21 22 22 22 22 23
8 7 8 11 10 13 15 15 16 13 12 11 10 9 8 8 6 4 3 3 5 7 11 10 11 12 15 15 14 15 16 17 17 20 18 22 21 19 22 21 22 23 22 23
10 9 9 10 11 11 10 13 16 15 14 14 14 13 12 9 6 6 8 6 6 8 9 10 11 12 13 13 14 14 15 16 16 17 19 20 22 21 20 22 23 23 23 25
9 9 9 9 9 9 10 15 17 18 17 13 14 12 12 11 8 8 6 6 7 8 7 9 10 11 12 12 11 12 13 15 14 15 16 17 20 20 22 22 22 23 23 24
8 8 8 8 8 12 14 16 12 15 17 17 17 14 13 12 11 8 8 7 7 5 5 8 8 9 8 8 10 11 13 13 14 14 15 15 18 19 21 22 21 23 24 24
7 9 9 8 6 5 7 9 14 18 19 20 19 15 14 13 13 10 7 7 7 5 3 4 5 7 8 8 9 9 11 11 12 13 13 15 16 17 19 22 22 21 23 24
5 6 5 3 1 2 4 7 10 14 14 14 13 9 12 13 15 11 7 7 5 3 3 4 5 7 8 8 8 7 10 11 10 13 14 13 14 16 18 21 22 22 23 24
Wind_Direction
251 236 122 208 263 354 71 211 130 250 212 268 277 277 283 286 330 333 324 323 323 342 349 356 356 358 0 1 357 1 357 1 8 12 8 13 25 30 28 28 28 44 30 41
279 150 168 236 227 175 335 264 325 271 291 235 285 276 349 338 335 330 328 315 322 340 356 4 2 2 0 0 5 4 4 2 6 11 11 15 21 24 17 17 22 36 32 31
352 130 156 280 232 217 231 218 179 221 238 306 309 22 331 306 322 315 325 331 327 336 1 17 18 14 7 3 358 7 6 10 10 18 20 20 19 18 17 19 20 23 28 24
193 157 251 239 167 183 206 204 236 251 301 274 208 220 282 312 306 332 330 343 335 348 7 28 23 18 8 7 9 6 5 3 10 17 22 18 18 19 18 18 19 23 26 23
117 214 287 7 203 196 183 259 231 247 302 279 352 244 314 304 309 309 313 330 4 8 38 27 19 14 11 10 17 6 360 358 8 18 14 15 18 15 13 18 19 20 24 25
113 173 239 230 212 169 106 291 241 207 239 226 83 352 272 281 290 327 344 5 8 34 35 26 16 15 14 14 11 8 2 358 4 11 9 11 14 13 12 14 17 13 13 19
153 209 287 234 178 108 107 240 251 183 195 197 213 210 246 305 325 339 5 3 12 40 29 16 15 20 15 14 11 4 5 3 7 6 5 8 7 8 10 10 12 11 10 11
86 65 297 224 332 174 217 239 219 171 192 199 225 245 270 297 306 341 352 356 16 19 13 7 6 9 12 8 3 3 3 9 5 6 3 2 2 3 9 9 6 5 8 4
171 213 225 229 205 228 182 202 196 167 209 199 217 245 287 299 310 319 346 22 17 9 0 359 0 11 11 8 8 6 7 8 8 5 3 2 358 356 354 3 3 1 0 357
87 249 231 245 242 199 175 163 182 208 172 194 248 267 256 289 345 25 36 13 2 5 2 6 10 8 10 8 7 12 13 10 3 1 0 1 3 358 349 351 354 349 347 344
252 287 266 269 182 160 175 144 98 116 144 33 9 10 59 61 48 32 12 5 8 8 5 2 2 8 6 7 8 9 6 4 2 356 351 349 348 350 350 358 352 344 342 341
225 231 178 235 189 180 147 125 143 153 75 74 80 90 98 71 46 18 7 12 12 12 11 9 10 7 359 1 7 11 0 357 356 352 353 347 343 342 350 352 356 359 356 351
242 218 184 182 181 153 138 163 129 101 102 91 88 101 94 82 29 18 24 22 11 4 1 2 3 2 1 351 353 355 352 354 348 351 342 341 343 343 338 341 348 353 354 354
252 171 146 156 174 166 155 118 108 101 96 104 105 92 90 55 26 29 23 4 358 5 4 0 356 351 352 357 353 355 355 354 349 347 346 342 342 342 339 339 339 347 352 350
110 126 182 149 151 140 123 120 105 110 118 98 76 65 40 22 24 25 7 0 0 1 5 352 347 351 358 357 357 358 357 350 347 346 351 350 346 343 342 346 346 344 348 353
91 71 121 152 110 109 116 110 115 128 112 97 64 37 25 15 32 7 5 4 5 355 3 352 356 358 0 359 352 354 355 357 350 343 347 350 348 344 343 347 351 351 349 350
146 159 119 112 136 146 148 149 147 147 132 117 67 15 2 353 1 1 3 5 4 54 360 6 2 0 355 2 359 3 358 355 355 354 351 348 350 348 346 349 348 352 348 353
204 183 151 150 149 145 150 155 156 158 166 169 156 2 338 348 333 334 348 354 10 360 10 12 9 3 4 7 7 6 360 6 5 0 356 354 354 353 349 348 346 350 350 353
150 142 145 150 156 159 165 176 182 187 177 183 188 234 260 284 317 322 335 355 348 355 359 8 3 3 8 13 12 13 12 12 6 0 3 358 0 1 358 352 351 352 350 350
142 152 157 158 162 165 179 199 200 199 203 202 210 224 249 269 306 313 321 323 275 350 352 346 345 349 359 4 9 8 13 12 9 0 357 359 357 355 355 357 354 349 353 353
153 160 167 175 189 199 209 213 208 213 214 216 220 233 248 268 297 320 314 291 261 329 337 339 336 340 345 352 354 356 357 3 10 5 359 356 356 4 2 0 359 356 354 354
166 162 188 206 210 222 229 228 223 224 216 224 230 236 246 258 269 295 307 282 297 321 336 327 333 332 339 343 348 349 350 356 360 1 1 4 360 352 359 355 352 356 356 357
200 210 218 220 222 239 256 239 234 229 230 232 230 233 239 251 242 269 276 260 290 315 331 324 325 329 336 340 347 349 353 355 357 356 2 3 6 8 359 357 356 355 357 356
205 217 226 238 239 239 241 252 240 235 238 244 240 242 235 229 229 242 241 250 295 316 329 323 323 329 332 340 350 356 358 358 360 358 357 354 358 5 3 4 1 1 358 360
225 233 238 238 235 248 262 270 258 239 232 235 239 241 238 237 234 228 231 272 297 324 318 318 327 332 341 344 346 347 349 355 355 357 0 359 356 358 358 358 2 359 356 359
214 225 241 241 235 248 265 261 240 242 233 235 238 247 247 241 226 220 240 266 281 310 310 322 326 328 329 332 330 331 332 344 351 352 357 353 356 358 357 353 357 356 354 358
186 182 179 176 212 291 295 279 254 240 232 230 225 232 242 218 208 227 254 244 259 261 266 288 291 300 305 313 321 324 336 341 335 344 340 338 346 351 354 349 351 350 351 354